Wind_Speed
8 7 7 7 6 6 6 6 5 5 5 6 6 6 6 6 7 8 8 9 9 8 8 9 10 10 8 8 8 7 8 7 7 6 6 5 6 6 5 4 4 4 4
7 6 6 6 6 6 6 6 6 6 6 6 6 6 6 7 8 9 9 9 9 8 8 8 9 9 9 8 7 7 7 6 7 6 6 5 5 5 5 4 4 4 4
8 7 6 6 6 5 5 6 6 6 6 6 6 6 7 7 8 9 9 9 9 9 8 8 8 8 8 8 7 7 7 6 5 6 6 5 5 5 5 5 4 4 4
8 8 7 6 6 5 5 5 6 6 6 6 6 6 7 8 8 8 8 9 9 9 9 9 8 8 7 7 7 7 6 6 5 5 5 5 4 4 4 4 4 4 4
8 8 7 6 6 6 5 5 5 6 6 6 7 7 7 8 8 8 7 8 9 9 8 8 8 7 7 6 6 6 6 5 5 5 5 5 4 4 3 3 3 3 4
9 9 7 7 6 6 5 5 5 5 6 7 7 7 7 7 7 7 8 7 7 8 8 8 8 7 7 6 5 5 5 6 6 5 4 3 3 3 3 3 3 3 4
10 9 8 6 6 6 6 6 6 6 6 6 6 6 7 7 7 7 7 7 6 7 7 7 7 6 6 6 5 5 6 6 4 3 3 3 3 3 3 2 3 4 4
10 9 8 7 6 6 7 7 7 7 7 7 7 7 6 7 7 7 6 6 6 7 7 7 7 6 6 5 5 4 5 4 4 3 3 4 3 3 3 3 3 4 5
11 10 8 8 7 7 7 7 7 7 7 7 7 7 7 7 8 8 7 7 6 7 7 7 6 5 6 6 6 5 5 4 3 4 4 3 3 3 3 3 3 3 4
11 10 8 9 8 7 7 7 7 7 7 7 7 7 7 6 7 8 7 7 6 6 6 6 6 6 7 6 6 5 4 3 4 4 3 3 3 3 3 3 3 3 3
11 11 9 8 8 8 7 8 7 7 7 6 6 6 6 6 6 6 6 7 7 6 6 6 6 5 6 5 5 4 4 3 4 3 3 4 3 3 3 3 3 3 2
12 11 10 9 9 9 8 8 7 7 7 6 6 6 6 6 6 6 5 6 5 5 5 6 5 5 5 5 5 4 3 3 3 3 3 3 3 2 3 2 2 2 2
13 12 11 10 10 9 8 8 8 7 7 6 6 6 6 6 6 6 5 5 5 5 5 5 5 5 5 5 4 4 3 3 3 3 4 3 2 2 2 2 2 2 1
13 12 11 10 9 9 8 8 7 7 7 6 6 5 5 6 6 6 5 4 5 6 6 5 5 4 5 4 4 3 3 2 3 3 4 3 2 2 2 2 2 2 3
12 13 12 11 10 9 8 8 7 7 7 7 7 6 5 5 6 6 5 4 4 5 5 5 5 5 4 4 3 3 3 3 3 3 3 3 3 2 3 3 2 3 3
13 13 13 12 10 9 9 8 8 8 8 8 7 7 6 6 5 5 5 5 4 4 5 4 4 4 3 2 2 2 2 2 2 2 2 2 3 3 3 3 3 4 4
14 13 12 11 10 9 9 9 9 8 8 8 7 7 7 7 6 5 5 5 5 5 4 4 4 4 4 3 1 2 2 1 1 1 2 2 3 3 3 4 5 6 6
14 13 12 11 10 9 9 9 9 9 9 8 7 7 7 6 6 5 5 5 5 4 4 4 3 3 3 2 2 1 1 0 1 1 2 3 3 4 5 5 6 6 7
14 14 12 12 11 10 10 9 9 10 10 9 8 7 6 6 6 5 5 4 4 4 3 3 4 3 2 2 2 2 2 2 2 3 3 4 4 5 5 6 6 6 6
13 13 13 12 11 11 10 10 10 10 10 9 8 7 7 6 6 5 5 5 4 4 3 3 4 3 3 2 3 3 3 4 4 4 5 5 5 6 6 6 7 7 7
12 12 12 12 12 12 11 10 10 10 10 9 8 7 7 6 6 6 5 5 5 4 4 4 4 4 4 4 4 4 5 5 5 5 6 6 6 8 8 8 9 8 9
12 11 11 11 11 11 11 11 11 11 10 10 9 8 8 7 7 6 6 5 5 5 4 4 5 5 6 6 5 5 5 6 7 7 7 8 8 9 10 11 11 10 10
11 11 10 10 10 10 10 10 10 10 10 10 9 8 7 7 7 6 6 6 6 6 6 6 6 6 6 7 7 7 7 7 7 8 9 9 10 10 11 12 12 12 12
11 10 9 9 9 9 9 9 10 9 9 9 9 8 8 7 7 6 6 6 7 7 7 7 7 8 8 8 9 9 9 9 9 9 9 10 10 11 12 12 12 11 12
10 10 10 9 8 8 9 9 9 9 9 9 9 9 8 8 8 8 7 7 8 8 8 8 8 9 9 10 10 10 10 10 10 11 11 11 11 12 12 12 12 11 11
10 9 9 10 10 9 9 9 9 10 10 9 9 9 9 9 9 9 8 8 9 9 10 10 9 10 10 10 10 10 10 11 12 12 12 12 12 13 13 13 13 13 13
Wind_Direction
52 62 71 78 78 84 91 89 93 102 101 103 110 112 115 122 125 123 128 127 129 133 135 142 148 146 141 138 135 138 143 143 143 146 151 155 164 166 167 177 173 155 146
56 58 66 78 80 89 97 103 103 103 101 105 110 112 112 118 124 122 122 126 129 132 135 142 146 145 142 140 139 139 141 144 147 147 152 155 156 154 157 158 157 146 149
52 55 66 72 74 86 93 107 111 104 100 99 101 101 106 119 122 120 123 126 128 131 135 139 145 143 141 143 140 137 138 145 151 154 156 154 149 143 146 144 134 130 148
49 56 59 72 87 93 96 104 105 100 95 97 96 104 108 114 121 120 121 126 130 135 135 139 143 145 146 148 143 142 144 146 150 155 154 159 158 157 160 145 132 125 129
52 57 61 74 82 83 98 100 102 94 89 94 101 107 111 116 121 120 121 126 130 135 135 136 140 143 144 139 142 146 149 156 160 160 148 155 157 153 154 145 128 129 128
57 57 61 68 72 75 81 87 84 86 87 89 97 106 111 114 118 117 119 121 129 138 136 139 142 140 139 137 142 152 166 167 165 163 163 161 163 152 137 128 115 127 126
56 56 60 70 69 72 72 78 82 84 88 88 92 104 113 116 116 119 120 118 123 128 133 138 140 138 140 142 144 149 160 158 164 158 155 152 131 132 126 106 98 118 120
48 54 60 66 73 77 75 73 79 83 82 87 87 96 111 119 117 121 120 117 115 122 127 131 133 135 138 143 141 146 149 157 151 152 136 132 127 124 115 103 109 121 125
50 56 59 62 74 76 78 78 79 80 81 84 86 93 106 112 116 118 119 120 120 125 126 132 131 132 144 143 142 144 145 145 138 140 132 138 153 134 125 122 119 122 129
52 55 62 67 73 76 74 75 77 80 81 86 90 91 100 106 114 113 116 121 128 127 126 131 128 135 137 133 137 141 138 132 129 142 133 143 152 138 133 128 126 125 123
51 51 52 59 68 74 75 73 72 72 80 84 88 88 94 100 109 113 112 117 124 121 124 127 129 132 139 139 140 138 135 144 144 146 144 156 150 135 135 140 145 135 138
47 46 49 58 64 66 70 69 70 75 78 81 86 90 95 101 106 106 111 113 112 113 118 119 125 127 127 135 135 131 138 149 162 164 161 163 155 137 142 155 158 151 159
46 43 47 56 63 66 66 67 66 69 65 72 86 93 97 100 103 106 114 112 105 109 114 109 110 122 116 122 122 121 137 157 174 179 172 177 171 167 167 178 177 180 189
44 42 42 50 58 61 65 66 64 66 65 70 75 85 92 102 103 99 105 102 100 103 104 107 112 123 118 119 117 117 124 134 153 171 186 190 187 185 192 199 204 211 225
44 42 41 46 55 59 63 62 60 61 61 61 63 75 79 94 95 90 79 77 96 103 100 103 98 108 120 123 123 128 130 133 138 167 185 203 217 221 215 218 227 239 242
41 42 44 50 55 59 61 60 55 56 59 59 61 68 74 82 82 75 73 78 92 98 99 103 101 92 103 108 110 114 114 128 153 177 198 219 237 233 230 241 247 254 257
41 44 47 48 51 53 54 55 53 53 56 59 63 68 76 76 71 75 70 73 82 85 88 87 86 78 75 76 83 103 106 122 157 207 214 224 235 241 249 262 267 268 262
41 43 46 46 46 47 48 48 48 49 49 51 56 62 72 73 75 68 66 70 72 69 73 77 77 61 58 46 35 38 48 29 300 277 248 250 255 259 261 268 276 277 270
42 42 43 43 44 44 43 43 45 47 48 50 52 54 53 58 66 61 58 63 58 49 46 44 48 36 19 19 359 336 337 330 312 302 286 273 265 263 269 273 273 278 280
41 42 42 44 44 44 43 43 45 47 47 47 47 51 49 47 48 50 45 47 43 30 18 17 18 8 345 333 326 318 316 313 305 292 284 283 279 269 271 275 277 273 278
36 38 41 43 45 44 42 43 45 47 46 45 46 47 49 46 40 34 30 29 29 24 20 9 349 333 324 319 314 311 310 310 306 300 293 290 287 283 281 280 276 276 277
33 34 37 39 41 43 42 43 43 42 40 40 41 39 39 35 28 24 22 16 10 9 2 351 336 322 310 308 303 303 305 307 308 306 301 296 292 288 280 280 279 274 275
25 27 31 34 35 36 36 36 36 33 29 26 26 25 24 20 14 8 7 3 355 350 344 335 324 312 303 304 309 307 301 300 304 302 302 299 296 294 288 286 284 280 278
15 14 19 24 27 28 25 23 23 21 20 19 18 13 6 0 357 356 349 341 336 332 327 322 315 306 304 303 305 305 303 301 301 299 296 299 301 301 297 293 290 285 278
10 13 16 16 15 15 15 14 13 12 8 7 6 3 357 351 347 346 341 329 323 320 316 312 310 306 306 305 304 305 303 300 301 303 297 298 298 298 299 297 296 294 289
5 10 13 14 12 8 4 2 3 1 359 357 357 356 352 347 344 338 331 327 322 318 314 310 312 315 315 314 312 309 308 305 305 304 298 296 293 293 296 297 297 294 291
Height
5863 5861 5861 5861 5860 5860 5860 5860 5860 5860 5860 5859 5859 5860 5860 5860 5861 5862 5862 5863 5864 5866 5867 5868 5869 5870 5871 5872 5874 5875 5876 5877 5878 5879 5880 5881 5882 5883 5884 5885 5886 5887 5888
5864 5863 5863 5862 5862 5861 5861 5861 5861 5861 5861 5861 5861 5861 5861 5862 5862 5863 5863 5864 5865 5866 5868 5869 5870 5871 5872 5873 5875 5876 5877 5878 5879 5880 5881 5882 5883 5884 5885 5886 5886 5887 5888
5866 5865 5864 5864 5863 5863 5863 5863 5863 5863 5863 5863 5862 5862 5863 5863 5864 5864 5865 5865 5866 5868 5869 5870 5870 5872 5873 5874 5876 5877 5878 5878 5879 5880 5882 5883 5884 5884 5885 5886 5887 5888 5888
5867 5866 5865 5865 5864 5864 5864 5864 5864 5864 5864 5864 5864 5864 5864 5864 5865 5866 5866 5867 5868 5869 5870 5871 5872 5873 5874 5875 5876 5878 5879 5879 5880 5881 5882 5883 5884 5885 5886 5887 5887 5888 5889
5868 5867 5867 5866 5866 5866 5866 5866 5866 5866 5865 5865 5865 5865 5866 5866 5867 5867 5868 5869 5870 5870 5871 5872 5873 5874 5876 5876 5877 5879 5879 5880 5882 5882 5883 5884 5885 5886 5886 5887 5887 5888 5889
5869 5869 5868 5868 5868 5868 5867 5867 5868 5867 5867 5867 5867 5867 5867 5868 5868 5869 5870 5870 5871 5872 5873 5874 5875 5876 5877 5878 5879 5880 5880 5881 5882 5883 5884 5885 5886 5886 5887 5888 5888 5888 5889
5871 5870 5870 5869 5869 5869 5869 5869 5869 5869 5869 5869 5869 5869 5869 5869 5870 5870 5871 5872 5873 5873 5874 5875 5876 5877 5878 5879 5880 5881 5881 5882 5883 5884 5885 5886 5887 5887 5888 5889 5889 5889 5890
5873 5872 5871 5870 5870 5871 5870 5870 5870 5870 5870 5870 5870 5870 5871 5871 5871 5872 5872 5873 5874 5874 5875 5876 5877 5878 5879 5880 5880 5881 5882 5883 5884 5885 5885 5886 5887 5888 5889 5890 5890 5891 5891
5875 5874 5873 5872 5872 5872 5872 5872 5872 5872 5872 5872 5871 5871 5872 5873 5873 5873 5874 5874 5875 5876 5876 5877 5878 5879 5879 5880 5881 5882 5883 5884 5885 5886 5886 5887 5888 5889 5890 5890 5891 5891 5892
5877 5876 5875 5875 5874 5874 5873 5873 5873 5873 5873 5873 5873 5873 5874 5874 5874 5875 5875 5875 5876 5876 5877 5878 5879 5879 5880 5881 5882 5883 5884 5885 5886 5887 5887 5888 5889 5890 5890 5891 5891 5892 5893
5880 5879 5877 5877 5876 5875 5875 5875 5875 5875 5874 5874 5875 5875 5875 5875 5876 5876 5876 5877 5877 5878 5878 5879 5880 5880 5881 5882 5882 5884 5884 5885 5886 5887 5887 5888 5889 5890 5891 5891 5892 5893 5893
5882 5880 5879 5878 5878 5878 5877 5877 5877 5877 5877 5877 5877 5877 5877 5877 5877 5878 5878 5878 5878 5879 5880 5880 5881 5881 5882 5882 5883 5884 5885 5886 5886 5887 5888 5889 5889 5890 5891 5892 5893 5893 5894
5884 5883 5881 5880 5880 5880 5880 5880 5879 5879 5879 5879 5879 5878 5878 5879 5879 5879 5880 5880 5880 5881 5881 5882 5882 5883 5883 5884 5884 5885 5886 5886 5887 5888 5888 5889 5890 5891 5891 5892 5893 5893 5894
5887 5885 5884 5882 5882 5882 5882 5882 5882 5881 5881 5881 5881 5880 5880 5881 5880 5880 5881 5882 5882 5883 5883 5883 5883 5883 5884 5885 5885 5886 5886 5887 5888 5888 5889 5890 5890 5891 5891 5892 5892 5893 5893
5889 5888 5886 5885 5885 5885 5884 5884 5884 5883 5883 5882 5882 5882 5883 5883 5883 5883 5883 5883 5883 5884 5884 5885 5884 5885 5886 5886 5886 5887 5887 5888 5888 5889 5889 5890 5890 5891 5891 5892 5892 5893 5893
5892 5891 5889 5888 5887 5887 5887 5886 5886 5885 5885 5885 5884 5884 5884 5884 5885 5885 5884 5884 5885 5885 5886 5886 5886 5886 5887 5887 5887 5888 5888 5888 5889 5889 5890 5890 5890 5891 5891 5892 5892 5892 5892
5895 5893 5892 5891 5890 5889 5889 5888 5888 5887 5887 5886 5886 5885 5885 5886 5886 5886 5886 5886 5886 5887 5887 5887 5887 5887 5888 5888 5888 5888 5888 5888 5889 5889 5889 5890 5890 5890 5890 5891 5891 5891 5891
5897 5896 5895 5894 5893 5892 5891 5891 5889 5888 5888 5888 5887 5887 5887 5887 5888 5888 5888 5888 5888 5888 5888 5888 5888 5888 5889 5889 5889 5889 5888 5889 5889 5889 5889 5889 5889 5890 5890 5890 5890 5889 5889
5900 5898 5897 5896 5895 5894 5894 5893 5892 5891 5890 5890 5889 5889 5889 5889 5889 5889 5889 5889 5889 5889 5889 5889 5889 5889 5889 5889 5889 5889 5889 5889 5889 5889 5889 5889 5889 5888 5888 5888 5888 5888 5888
5902 5901 5899 5898 5897 5897 5896 5895 5894 5893 5893 5892 5891 5891 5891 5890 5890 5891 5891 5890 5890 5890 5890 5890 5890 5889 5889 5889 5889 5889 5889 5888 5888 5888 5888 5888 5887 5887 5887 5886 5887 5887 5887
5904 5903 5902 5901 5900 5899 5898 5897 5896 5895 5895 5894 5893 5892 5892 5892 5892 5892 5892 5892 5891 5891 5891 5891 5890 5890 5889 5889 5889 5889 5888 5888 5887 5887 5887 5886 5886 5886 5885 5885 5885 5884 5884
5906 5905 5904 5903 5902 5901 5900 5899 5898 5897 5896 5896 5895 5894 5893 5893 5893 5893 5893 5893 5892 5892 5892 5891 5890 5890 5889 5889 5888 5888 5888 5888 5887 5886 5885 5885 5884 5884 5883 5883 5882 5882 5881
5908 5906 5905 5904 5904 5903 5902 5901 5900 5899 5898 5897 5896 5896 5895 5894 5894 5893 5893 5893 5893 5892 5891 5891 5890 5889 5889 5888 5887 5887 5886 5886 5885 5885 5884 5883 5882 5882 5881 5880 5879 5879 5878
5909 5908 5907 5906 5905 5904 5903 5902 5901 5900 5899 5898 5897 5896 5895 5895 5894 5893 5893 5892 5892 5891 5891 5890 5889 5888 5888 5887 5886 5884 5884 5884 5884 5883 5882 5881 5881 5880 5879 5878 5877 5876 5876
5910 5909 5908 5907 5906 5905 5904 5903 5902 5901 5900 5899 5898 5897 5896 5895 5894 5893 5893 5892 5891 5890 5889 5889 5888 5887 5886 5885 5884 5883 5882 5882 5881 5880 5879 5879 5878 5877 5876 5875 5874 5873 5873
5911 5910 5909 5908 5907 5906 5904 5903 5902 5901 5900 5899 5898 5897 5896 5895 5894 5893 5892 5891 5890 5889 5888 5887 5886 5885 5884 5883 5882 5882 5881 5880 5879 5878 5877 5876 5875 5875 5874 5873 5872 5871 5870